Location: Roaix
(44.2436°N, 5.0113°E)
Time: 03:49:25
(UTC+00:00)

Daily predictions for brighter satellites

Satellite Brightness Start Highest point End
(mag) Time Altitude Azimuth Time Altitude Azimuth Time Altitude Azimuth
Lacrosse 5 3.9 02:42:08 25° NE 02:42:08 25° NE 02:45:22 10° E
Cosmos 2360 Rocket 3.6 02:42:59 10° N 02:48:12 36° NE 02:53:22 10° ESE
ARIANE 5 R/B 4.2 02:51:07 10° NNE 02:53:20 27° NNE 02:53:20 27° NNE
CZ-2C R/B 3.9 02:56:13 10° NNE 02:59:46 32° ENE 02:59:46 32° ENE
Cosmos 2082 Rocket 4.1 03:11:09 19° NNW 03:11:09 19° NNW 03:13:29 10° N
Cosmos 2333 Rocket 4.2 03:04:51 10° N 03:09:41 26° NE 03:14:29 10° ESE
ADEOS II 4.4 03:10:14 10° N 03:11:05 14° NNW 03:11:05 14° NNW
USA 267 3.6 03:10:56 10° NE 03:17:09 48° NNW 03:17:26 48° NW
IDEFIX/ARIANE 42P 4.2 03:14:44 10° N 03:16:52 24° N 03:16:52 24° N
BREEZE-M DEB (TANK) 3.9 03:22:53 59° NE 03:22:53 59° NE 03:25:26 10° ENE
NOSS 3-2 (A) 4.4 03:15:35 10° NNW 03:23:01 63° NE 03:31:25 10° SE
Cosmos 1553 Rocket 4.0 03:26:49 67° NW 03:26:49 67° NW 03:32:29 10° N
Cosmos 1417 Rocket 4.3 03:29:15 79° W 03:29:17 79° W 03:35:39 10° N
Cosmos 2219 Rocket 3.9 03:27:58 10° N 03:33:02 32° NE 03:38:05 10° ESE
CENTAUR R/B 3.7 03:32:01 10° NNW 03:39:58 58° NE 03:48:40 10° SE
PAYLOAD A 4.0 03:35:12 10° NNE 03:40:32 87° WNW 03:40:52 79° SSW
COSMOS 2428 4.4 03:35:35 10° N 03:40:40 32° NE 03:45:44 10° ESE
Cosmos 1606 3.7 03:42:18 46° E 03:42:18 46° E 03:45:59 10° NNE
Cosmos 2315 Rocket 4.5 03:37:27 10° S 03:43:29 58° E 03:49:33 10° NNE
PSLV R/B 3.7 03:42:56 10° NNE 03:47:19 72° ESE 03:47:30 70° SE
BREEZE M DEB (TANK) 3.6 03:51:34 29° NNE 03:51:34 29° NNE 03:55:00 10° ENE
USA 234 3.4 03:45:04 10° SSE 03:51:15 47° SW 03:51:15 47° SW
Lacrosse 4 Rocket 1.5 03:51:56 79° NNE 03:52:05 81° ENE 03:56:28 10° SSE
Milstar 3 Cent rocket 4.1 03:57:03 13° S 03:57:03 13° S 03:58:58 10° SSE
ATLAS 5 CENTAUR R/B 3.7 03:55:36 12° SSE 03:58:11 21° ESE 04:01:20 10° ENE
ISS -1.9 03:58:45 25° NNE 03:58:45 25° NNE 04:01:30 10° ENE
Cosmos 1805 Rocket 3.9 03:55:55 10° N 04:00:23 65° E 04:04:49 10° SSE
Cosmos 1743 Rocket 4.5 03:57:04 10° NNW 03:59:50 36° NNW 03:59:50 36° NNW
Cosmos 2221 3.9 04:04:42 27° NNW 04:04:42 27° NNW 04:07:01 10° N
NOSS 3-2 (C) 4.4 03:56:11 10° NW 04:03:41 68° NE 04:12:12 10° SE
Cosmos 2322 4.0 03:58:17 10° NNW 04:03:58 66° ENE 04:09:36 10° SE
Cosmos 1992 Rocket 3.8 03:59:26 10° NNW 04:04:39 72° WSW 04:09:49 10° S
Cosmos 2344 3.5 04:06:15 36° WSW 04:09:31 69° NW 04:17:28 10° NE
BREEZE-M DEB (TANK) 3.8 04:08:38 32° NW 04:10:31 57° NNE 04:23:39 10° E
FENGYUN 3A 3.6 04:05:45 10° NNE 04:11:14 90° SE 04:15:59 14° SSW
Cosmos 2237 4.4 04:12:49 39° WNW 04:13:55 44° WSW 04:19:16 10° S
Cosmos 1833 4.2 04:12:28 41° SW 04:14:20 64° WNW 04:19:57 10° NNE
ATLAS 2AS CENTAUR R/B 4.4 04:07:49 10° S 04:14:52 37° ESE 04:21:55 10° NE
S3M 4.2 04:13:57 39° WSW 04:15:13 44° WNW 04:21:06 10° N
Landsat 5 3.2 04:18:43 56° SW 04:19:08 61° WSW 04:23:00 10° NNW
CBERS 1 LM4 rocket 4.3 04:14:27 10° NNE 04:19:17 81° ESE 04:24:01 10° SSW
Cosmos 1745 Rocket 4.4 04:15:01 10° NNW 04:20:46 39° W 04:23:55 24° SW
Sich 1 3.0 04:17:46 10° N 04:22:13 84° E 04:26:36 10° S
Cosmos 1666 Rocket 4.4 04:19:33 10° N 04:23:50 53° ENE 04:28:07 10° SSE
Lacrosse 5 1.8 04:21:22 23° NW 04:24:36 89° NE 04:29:40 10° SE
SJ-6F 4.3 04:21:34 10° N 04:25:45 77° WNW 04:28:32 20° SSW
ALOS 2.2 04:22:24 10° N 04:27:03 65° WNW 04:30:10 20° SSW
ADEOS 4.0 04:22:07 10° NNE 04:27:19 63° ESE 04:32:29 10° S
Meteor 1-31 Rocket 3.4 04:26:39 10° NNE 04:30:29 57° E 04:34:15 10° S
Cosmos 2360 Rocket 2.6 04:27:00 10° NW 04:32:11 37° WSW 04:37:20 10° S
Cosmos 1709 Rocket 4.1 04:26:46 10° NNW 04:32:57 54° W 04:39:07 10° SSW
ARIANE 5 R/B 4.4 04:32:08 10° NNW 04:33:42 13° NW 04:33:42 13° NW
CZ-4B R/B 2.9 04:31:46 10° SE 04:34:37 35° ENE 04:37:28 10° N
Cosmos 2333 4.2 04:29:10 10° NNW 04:34:54 65° WSW 04:40:37 10° SSE
USA 276 2.1 04:36:12 53° W 04:36:47 70° NNW 04:39:59 10° ENE
Cosmos 909 Rocket 4.0 04:30:58 12° SSW 04:37:14 88° WNW 04:43:32 10° NNE
Cosmos 2237 Rocket 3.9 04:32:36 10° N 04:37:44 33° NE 04:42:49 10° ESE
CZ-2C R/B 3.2 04:34:40 10° N 04:38:39 27° WNW 04:39:09 26° WNW
USA 238 DEB 3.9 04:36:49 10° NW 04:44:00 63° WSW 04:51:28 10° SSE
USA 238 3.9 04:36:55 10° NW 04:44:06 63° WSW 04:51:34 10° SSE
H-2A R/B 2.0 04:41:05 10° S 04:45:14 53° W 04:49:20 10° NNW
SeaSat 1 2.4 04:42:13 10° SSE 04:47:09 88° WSW 04:52:07 10° NNW
Cosmos 1437 Rocket 3.0 04:48:14 10° S 04:52:17 74° E 04:56:20 10° NNE
NOSS 0 Rocket 4.4 04:46:19 10° NNW 04:52:28 64° ENE 04:58:36 10° SE
ATLAS 3B R/B 4.1 04:46:16 10° NNW 04:52:42 38° NE 04:59:21 10° ESE
SKYMED 2 3.6 04:48:31 10° SSE 04:52:51 86° ENE 04:57:13 10° NNW
Cosmos 1484 Rocket 3.3 04:49:32 10° N 04:52:56 34° WNW 04:54:50 20° WSW
Cosmos 1151 Rocket 3.0 04:49:30 10° S 04:53:48 88° ESE 04:58:09 10° N
CZ-4C R/B 2.0 04:49:30 11° SW 04:54:08 88° NW 05:00:01 10° NE
Cosmos 2333 Rocket 2.3 04:48:40 10° NNW 04:54:19 56° WSW 04:59:55 10° S
Cosmos 1782 2.9 04:51:50 10° S 04:55:45 77° E 04:59:43 10° NNE
Cosmos 2227 Rocket 4.4 04:51:25 10° SSE 04:56:06 27° ESE 05:00:49 10° NE
Cosmos 1633 Rocket 3.0 04:52:25 10° N 04:56:51 83° W 05:01:13 10° S
USA 267 4.5 04:53:47 10° NE 04:59:16 30° N 05:04:45 10° WNW
MOS 1 Rocket 3.0 04:56:01 10° S 05:00:21 74° WSW 05:04:58 10° NNW
Cosmos 2251 Rocket 4.3 04:59:28 16° WSW 05:03:07 33° WNW 05:07:59 10° N
CZ-4B R/B 3.8 05:01:14 10° N 05:04:51 51° WNW 05:08:23 10° SSW
Meteor 1-26 Rocket 4.2 05:00:09 10° SSW 05:05:51 82° W 05:11:46 10° N
H-2A R/B 4.0 04:56:34 14° WSW 05:08:28 33° SSW 05:12:58 10° SE
COSMOS 2487 4.0 05:08:43 17° WNW 05:09:30 18° WNW 05:11:55 10° NNW
Cosmos 2297 Rocket 3.4 05:06:08 10° S 05:11:28 46° ESE 05:16:51 10° NE
Cosmos 1689 Rocket 4.0 05:08:58 10° SE 05:11:31 32° ENE 05:14:06 10° N
Meteor PRIRODA 3.8 05:08:42 10° NNE 05:12:26 79° E 05:16:10 10° S
Nadezhda 1 Rocket 4.1 05:08:54 10° S 05:15:01 84° E 05:21:16 10° N
Cosmos 2219 Rocket 2.5 05:11:47 10° NW 05:17:06 43° WSW 05:22:24 10° S
Cosmos 1954 Rocket 4.4 05:15:23 10° S 05:20:36 69° ESE 05:25:51 10° NNE
Cosmos 1980 4.0 05:16:39 10° NNW 05:22:21 74° ENE 05:28:00 10° SSE
COSMOS 2428 3.1 05:19:41 10° NW 05:25:05 44° WSW 05:30:27 10° S
GPS 2-04 Rocket1 4.3 05:22:43 10° SW 05:25:42 22° S 05:28:46 10° SE
Cosmos 407 Rocket 3.7 05:22:29 10° SW 05:27:30 50° WNW 05:32:31 10° N
Cosmos 1500 3.1 05:24:01 10° N 05:27:50 84° W 05:31:38 10° S
Cosmos 1515 Rocket 3.5 05:25:14 10° S 05:29:35 81° W 05:33:58 10° N
Cosmos 1328 Rocket 3.8 05:25:45 10° SSW 05:29:52 45° WNW 05:34:02 10° N
Lacrosse 4 Rocket 3.4 05:28:48 10° W 05:30:03 11° WSW 05:31:17 10° WSW
CZ-3 R/B 3.8 05:18:08 10° WSW 05:30:07 25° S 05:35:15 10° SE
CENTAUR R/B 3.6 05:22:59 10° NW 05:30:45 44° WSW 05:39:01 10° S
Cosmos 2327 Rocket 4.4 05:29:20 10° NNW 05:35:25 70° W 05:41:27 10° S
ISS -3.6 05:32:29 10° WNW 05:35:51 74° NNE 05:39:12 10° ESE
ERS-2 2.1 05:33:13 10° SSE 05:36:50 84° WSW 05:40:30 10° NNW
Cosmos 1190 Rocket 4.2 05:31:56 10° SW 05:37:08 54° WNW 05:42:22 10° NNE
Cosmos 1470 Rocket 3.7 05:35:19 10° NNW 05:39:31 50° W 05:43:42 10° SSW
COSMO-SKYMED 1 3.4 05:37:17 10° SSW 05:41:04 29° W 05:44:53 10° NW
